Home   Weather   Kelowna   Past weeks

Flag for Canada Past Weather in Kelowna, British Columbia, Canada — Yesterday and Last 2 Weeks

Now
66 °F

Sunny.


Feels Like: 66 °F
Forecast: 49 / 78 °F
Wind: 9 mph from Northwest

Location: Kelowna Airport

Current Time: Sep 25, 2016 at 5:20:35 PM

Latest Report: Sep 25, 2016 at 5:00 PM


Visibility: 9 mi

Pressure: 30.33 "Hg

Humidity: 56%

Dew Point: 50 °F

Location of KelownaLocation

Past Weather in Kelowna — Graph

°F

Kelowna Temperature Yesterday

Maximum temperature yesterday: 64 °F (at 3:00 PM)
Minimum temperature yesterday: 43 °F (at 7:00 AM)
Average temperature yesterday: 55 °F

High & Low Weather Summary for the Past Weeks

 TemperatureHumidityPressure
High82 °F (Sep 16, 3:00 PM)100% (Sep 20, 4:00 AM)30.41 "Hg (Sep 20, 4:00 AM)
Low36 °F (Sep 13, 6:00 AM)21% (Sep 16, 4:00 PM)29.70 "Hg (Sep 17, 6:00 PM)
Average55 °F70%30.06 "Hg
* Reported Sep 10 4:00 PM — Sep 25 4:00 PM, Kelowna, Weather by CustomWeather, © 2016

Note: Actual official high and low records may vary slightly from our data, if they occured in-between our weather recording intervals... More about our weather records

Advertising

Kelowna Weather History for the Previous 24 Hours

Scroll right to see more
 ConditionsComfort  
Time TempWeatherWind HumidityBarometerVisibility
4:00 PM
Sun, Sep 25
64 °FSunny.8 mph60%30.34 "Hg9 mi
3:00 PM64 °FSunny.10 mph64%30.35 "Hg9 mi
2:00 PM61 °FSunny.12 mph72%30.37 "Hg9 mi
1:00 PM63 °FPassing clouds.9 mph73%30.38 "Hg9 mi
12:00 PM61 °FPassing clouds.2 mph68%30.38 "Hg9 mi
11:00 AM57 °FPartly sunny.2 mph77%30.40 "Hg9 mi
10:00 AM54 °FScattered clouds.3 mph88%30.40 "Hg9 mi
9:47 AM54 °FPassing clouds.3 mph88%30.41 "Hg9 mi
9:00 AM52 °FLight rain. Passing clouds.2 mph94%30.41 "Hg9 mi
8:00 AM52 °FLight rain. Sunny.3 mph88%30.40 "Hg9 mi
7:00 AM50 °FLight rain. Sunny.No wind94%30.39 "Hg9 mi
6:00 AM50 °FLight rain. Clear.No wind94%30.37 "Hg9 mi
5:00 AM50 °FLight rain. Clear.No wind94%30.37 "Hg9 mi
4:00 AM52 °FLight rain. Clear.3 mph82%30.36 "Hg8 mi
3:00 AM52 °FClear.3 mph82%30.34 "Hg9 mi
2:00 AM52 °FClear.3 mph82%30.34 "Hg9 mi
1:00 AM52 °FPassing clouds.2 mph82%30.34 "Hg9 mi
12:00 AM54 °FPassing clouds.3 mph77%30.35 "Hg9 mi
11:59 PM
Sat, Sep 24
54 °FPassing clouds.3 mph77%30.35 "Hg9 mi
11:00 PM52 °FClear.2 mph82%30.34 "Hg9 mi
10:00 PM52 °FPassing clouds.2 mph82%30.34 "Hg9 mi
9:00 PM52 °FPartly cloudy.3 mph82%30.32 "Hg9 mi
8:00 PM54 °FClear.2 mph72%30.32 "Hg9 mi
7:00 PM55 °FClear.2 mph72%30.30 "Hg9 mi
6:00 PM63 °FSunny.3 mph42%30.29 "Hg9 mi
5:00 PM64 °FSunny.No wind37%30.29 "Hg9 mi
Weather by CustomWeather, © 2016

See weather overviewHow to use our weather pages